SL-12 R/B(2), 37140

Orbit data source: Space-Track

SL-12 R/B(2), 37140 is space debris in MEO originally from a launch on Thu, 02 Sep 2010 UTC launched from the Tyuratam Missile And Space Complex (TTMTR). Debris objects in space refer to the collection of defunct objects orbiting the Earth. Examples of debris include non-operational satellites, rocket bodies, and fragments generated from explosions, collisions, or faulty payload assembly.

Loading next visibility...
Identifier
37140, 2010-041D
Orbit
MEO
Country
Flag of CISCIS
Related business
Manufacturer
RKKE
Mission
Spacecraft
Bus & Motor
BLOK DM2, 11D58M
Mass
2,440 kg wet, 2,440 kg dry
Launch date (UTC)
2010-09-02 (16 years ago)
Launch vehicle
Unknown
Launch site
Tyuratam Missile And Space Complex (TTMTR)
Object type
Payload
Rocket body
Debris
Shape & HBR
Cyl, 3.5 m
Radar Cross Section
26.008 m², Large (>1 m²)

Expand to show TLE details & history
Last TLE update: 4 days ago

TLE from 4 days ago
0 SL-12 R/B(2)
1 37140U 10041D   26169.85512949  .00000057  00000-0  00000+0 0  9999
2 37140  63.9150 189.4306 0041539 194.7662 342.3496  2.13453955123081
Epoch: 2026-06-18T20:31Z
TLE epoch observation values (Epoch: 2026-06-18T20:31:23.187Z)
Latitude
2.70774°
Longitude
153.16815°
Altitude
19,001.26 km
Speed
3.971 km/s
True Right ascension
00h 32m 25s
True Declination
2° 42' 11"
Sunlit
Object was in daylight at epoch
Visualization orbit readout
Latitude
Unknown
Longitude
Unknown
Altitude
Unknown
Speed
Unknown
Apparent Right ascension
Unknown
Apparent Declination
Unknown
Sunlit
N/A
Visualization observer readout
Local Sidereal Time
23:20:06
Azimuth
Unknown
Elevation
Unknown
Doppler factor
Unknown
Orbital elements
Apogee altitude
19,207.333 km
Perigee altitude
18,995.653 km
Semi-major axis
25,479.63 km
Eccentricity
0.00415
Inclination
63.915°
RAAN
189.4306°
Arg. of periapsis
194.7662°
True anomaly
342.20455°
Mean anomaly
342.3496°
Eccentric anomaly
342.27715°
Mean motion
0.53365 °/min
Orbital period
674.6 mins
BSTAR
0
Loading maneuver chart data...
Computing Atmospheric mass density...
Loading historical data...
Loading historical data...
Loading historical data...
Loading historical data...
Loading historical data...
Loading historical data...
Loading historical data...

Documentation

Showing up to 5 results
|